Fort Leonard Wood, MO

1:03 PM CDT on June 22, 2017 (GMT -0500)
Waynesville Regional At Forney Field

Weather History for KTBN - March, 2014

Change the Weather History Date:

Monday, March 31, 2014

  Actual Average Record
Temperature  
Mean Temperature 56 °F -  
Max Temperature 64 °F 61 °F 83 °F (2012)
Min Temperature 48 °F 44 °F 35 °F (2004)
Degree Days  
Heating Degree Days 10    
Growing Degree Days 6 (Base 50)    
Moisture  
Dew Point 41 °F    
Average Humidity 59    
Maximum Humidity 80    
Minimum Humidity 36    
Precipitation  
Precipitation 0.10 in - - ()
Sea Level Pressure  
Sea Level Pressure 29.89 in    
Wind  
Wind Speed 13 mph (South)    
Max Wind Speed 25 mph    
Max Gust Speed 39 mph    
Visibility 10 miles    
Events Rain , Thunderstorm    
Averages and records for this station are not official NWS values.
T = Trace of Precipitation, MM = Missing Value Source: NWS Daily Summary

Daily Weather History Graph

Daily Weather History Graph

Search for Another Location

Airport or City:

Trip Planner

Search our weather history database for the weather conditions in past years. The results will help you decide how hot, cold, wet, or windy it might be!

Date:

Astronomy

Mar. 31, 2014 Rise Set
Actual Time 6:55 AM CDT 7:30 PM CDT
Civil Twilight 6:28 AM CDT 7:57 PM CDT
Nautical Twilight 5:57 AM CDT 8:28 PM CDT
Astronomical Twilight 5:26 AM CDT 9:00 PM CDT
Moon 7:20 AM CDT (3/31) 8:48 PM CDT (3/31)
Length of Visible Light 13h 28m
Length of Day
12h 35m
New Moon, 1% of the Moon is Illuminated
Mar 31
New Moon
Apr 7
First Quarter
Apr 15
Full
Apr 22
Last Quarter
Apr 29
New

Hourly Weather History & Observations

Time (CDT) Temp. Dew Point Humidity Pressure Visibility Wind Dir Wind Speed Gust Speed Precip Events Conditions
12:58 AM 51.4 °F 42.1 °F 70% 29.99 in 10.0 mi SSE 11.5 mph - N/A   Clear
1:58 AM 50.9 °F 41.9 °F 71% 29.97 in 10.0 mi SSE 11.5 mph - N/A   Partly Cloudy
2:58 AM 50.5 °F 42.3 °F 73% 29.95 in 10.0 mi SSE 9.2 mph - N/A   Clear
3:58 AM 50.9 °F 41.9 °F 71% 29.94 in 10.0 mi SSE 11.5 mph - N/A   Clear
4:58 AM 50.0 °F 41.7 °F 73% 29.93 in 10.0 mi SSE 12.7 mph - N/A   Partly Cloudy
5:58 AM 48.9 °F 41.9 °F 77% 29.92 in 10.0 mi SE 13.8 mph - N/A   Partly Cloudy
6:58 AM 48.9 °F 41.9 °F 77% 29.92 in 10.0 mi SSE 12.7 mph - N/A   Mostly Cloudy
7:58 AM 50.5 °F 42.3 °F 73% 29.93 in 10.0 mi SSE 15.0 mph - N/A   Overcast
8:58 AM 54.5 °F 42.4 °F 64% 29.91 in 10.0 mi SSE 15.0 mph 24.2 mph N/A   Scattered Clouds
9:58 AM 57.0 °F 41.5 °F 56% 29.91 in 10.0 mi SSE 15.0 mph 26.5 mph N/A   Scattered Clouds
10:54 AM 57.2 °F 39.2 °F 51% 29.89 in 10.0 mi SSE 17.3 mph 31.1 mph N/A Rain Light Rain
10:58 AM 57.6 °F 39.6 °F 51% 29.88 in 10.0 mi SSE 18.4 mph 31.1 mph 0.00 in Rain Light Rain
11:12 AM 55.4 °F 41.0 °F 58% 29.87 in 10.0 mi SSE 16.1 mph 25.3 mph N/A Thunderstorm Mostly Cloudy
11:58 AM 61.2 °F 34.9 °F 37% 29.89 in 10.0 mi South 16.1 mph 27.6 mph 0.00 in   Mostly Cloudy
11:59 AM 60.8 °F 35.6 °F 39% 29.88 in 10.0 mi South 17.3 mph 27.6 mph N/A Rain Light Rain
12:25 PM 55.4 °F 41.0 °F 58% 29.87 in 10.0 mi South 16.1 mph 27.6 mph N/A Thunderstorm Overcast
12:58 PM 57.9 °F 41.2 °F 54% 29.87 in 10.0 mi South 10.4 mph 23.0 mph 0.10 in   Mostly Cloudy
1:34 PM 59.0 °F 37.4 °F 45% 29.84 in 10.0 mi South 19.6 mph 27.6 mph N/A Rain Light Rain
1:43 PM 59.0 °F 35.6 °F 42% 29.84 in 10.0 mi South 15.0 mph 28.8 mph N/A   Mostly Cloudy
1:58 PM 58.1 °F 35.1 °F 42% 29.81 in 10.0 mi SSE 23.0 mph 29.9 mph 0.00 in   Scattered Clouds
2:58 PM 60.4 °F 33.3 °F 36% 29.76 in 10.0 mi SSE 25.3 mph 39.1 mph N/A   Partly Cloudy
3:58 PM 63.9 °F 39.0 °F 40% 29.77 in 10.0 mi SSW 12.7 mph 26.5 mph N/A   Clear
4:58 PM 61.7 °F 42.1 °F 49% 29.80 in 10.0 mi SSW 12.7 mph 27.6 mph N/A   Clear
5:58 PM 60.4 °F 43.2 °F 53% 29.85 in 10.0 mi South 18.4 mph 28.8 mph N/A   Overcast
6:58 PM 59.5 °F 42.1 °F 52% 29.86 in 10.0 mi South 13.8 mph 23.0 mph N/A   Scattered Clouds
7:58 PM 57.6 °F 44.8 °F 62% 29.85 in 10.0 mi South 11.5 mph 20.7 mph N/A   Clear
8:58 PM 57.0 °F 46.8 °F 69% 29.87 in 10.0 mi South 9.2 mph 17.3 mph N/A   Scattered Clouds
9:29 PM 57.2 °F 46.4 °F 67% 29.90 in 10.0 mi SSW 6.9 mph - N/A   Light Drizzle
9:43 PM 57.2 °F 46.4 °F 67% 29.90 in 10.0 mi SSW 8.1 mph 18.4 mph N/A   Overcast
9:58 PM 56.5 °F 46.4 °F 69% 29.90 in 10.0 mi South 8.1 mph - 0.00 in   Mostly Cloudy
10:58 PM 54.7 °F 45.9 °F 72% 29.94 in 10.0 mi SSW 5.8 mph - N/A   Clear
11:58 PM 54.0 °F 48.0 °F 80% 29.94 in 10.0 mi SSW 8.1 mph - N/A   Clear